Grayling, MI

5:20 PM EDT on May 26, 2017 (GMT -0400)
Grayling

Weather History for KGOV - April, 2013

Change the Weather History Date:

Monday, April 29, 2013

  Actual Average (KHTL) Record (KHTL)
Temperature  
Mean Temperature 58 °F -  
Max Temperature 73 °F 61 °F 84 °F (1970)
Min Temperature 42 °F 37 °F 18 °F (1945)
Degree Days  
Heating Degree Days 8    
Growing Degree Days 8 (Base 50)    
Moisture  
Dew Point 50 °F    
Average Humidity 80    
Maximum Humidity 100    
Minimum Humidity 43    
Precipitation  
Precipitation 0.00 in - - ()
Sea Level Pressure  
Sea Level Pressure 29.87 in    
Wind  
Wind Speed 2 mph (SSE)    
Max Wind Speed 14 mph    
Max Gust Speed -    
Visibility 8 miles    
Events Fog , Rain    
Averages and records for this station are not official NWS values.
T = Trace of Precipitation, MM = Missing Value Source: NWS Daily Summary

Daily Weather History Graph

Daily Weather History Graph

Search for Another Location

Airport or City:

Trip Planner

Search our weather history database for the weather conditions in past years. The results will help you decide how hot, cold, wet, or windy it might be!

Date:

Astronomy

Apr. 29, 2013 Rise Set
Actual Time 6:31 AM EDT 8:41 PM EDT
Civil Twilight 5:59 AM EDT 9:13 PM EDT
Nautical Twilight 5:20 AM EDT 9:53 PM EDT
Astronomical Twilight 4:36 AM EDT 10:37 PM EDT
Moon 12:14 AM EDT (4/29) 9:47 AM EDT (4/29)
Length of Visible Light 15h 14m
Length of Day
14h 10m
Waning Gibbous, 80% of the Moon is Illuminated
Apr 29
Waning Gibbous
May 2
Last Quarter
May 9
New
May 18
First Quarter
May 25
Full

Hourly Weather History & Observations

Time (EDT) Temp. Dew Point Humidity Pressure Visibility Wind Dir Wind Speed Gust Speed Precip Events Conditions
12:14 AM 48.6 °F 46.9 °F 94% 29.87 in 10.0 mi ESE 3.5 mph - N/A   Overcast
12:35 AM 53.6 °F 50.5 °F 89% 29.87 in 10.0 mi Calm Calm - N/A   Overcast
12:55 AM 53.6 °F 50.2 °F 88% 29.87 in 10.0 mi SSE 3.5 mph - N/A   Overcast
1:14 AM 53.6 °F 50.2 °F 88% 29.86 in 10.0 mi Calm Calm - N/A   Overcast
1:35 AM 53.6 °F 50.4 °F 89% 29.87 in 10.0 mi Calm Calm - N/A   Overcast
1:55 AM 53.6 °F 50.4 °F 89% 29.87 in 10.0 mi Calm Calm - N/A   Overcast
2:14 AM 53.6 °F 50.9 °F 91% 29.87 in 10.0 mi Calm Calm - N/A   Overcast
2:35 AM 53.6 °F 51.3 °F 92% 29.87 in 10.0 mi Calm Calm - N/A   Overcast
2:55 AM 53.6 °F 51.3 °F 92% 29.86 in 10.0 mi Calm Calm - N/A   Overcast
3:15 AM 53.6 °F 51.4 °F 92% 29.86 in 10.0 mi Calm Calm - N/A   Overcast
3:35 AM 53.6 °F 51.4 °F 92% 29.85 in 10.0 mi Calm Calm - N/A   Overcast
3:54 AM 52.3 °F 50.5 °F 94% 29.85 in 10.0 mi Calm Calm - N/A   Overcast
4:15 AM 49.6 °F 48.9 °F 97% 29.85 in 10.0 mi Calm Calm - N/A   Mostly Cloudy
4:35 AM 48.4 °F 48.2 °F 99% 29.85 in 7.0 mi Calm Calm - N/A   Mostly Cloudy
4:55 AM 48.0 °F 48.0 °F 100% 29.86 in 2.5 mi Calm Calm - N/A   Scattered Clouds
5:15 AM 43.3 °F 43.3 °F 100% 29.86 in 0.2 mi Calm Calm - N/A Fog Fog
5:35 AM 45.5 °F 45.5 °F 100% 29.87 in 0.5 mi Calm Calm - N/A Fog Fog
5:55 AM 43.3 °F 43.3 °F 100% 29.87 in 7.0 mi Calm Calm - N/A   Overcast
6:15 AM 43.3 °F 43.3 °F 100% 29.87 in 5.0 mi Calm Calm - N/A   Overcast
6:34 AM 43.3 °F 43.3 °F 100% 29.87 in 4.0 mi Calm Calm - N/A   Overcast
6:55 AM 43.3 °F 43.3 °F 100% 29.87 in 0.5 mi Calm Calm - N/A Fog Fog
7:15 AM 42.6 °F 42.6 °F 100% 29.87 in 0.2 mi Calm Calm - N/A Fog Fog
7:34 AM 45.5 °F 45.5 °F 100% 29.88 in 1.8 mi Calm Calm - N/A   Mist
7:55 AM 45.9 °F 45.9 °F 100% 29.88 in 3.0 mi Calm Calm - N/A   Clear
8:15 AM 48.4 °F 48.4 °F 100% 29.89 in 5.0 mi Calm Calm - N/A   Clear
8:34 AM 53.6 °F 52.0 °F 94% 29.89 in 7.0 mi SW 4.6 mph - N/A   Clear
8:55 AM 55.9 °F 51.6 °F 85% 29.89 in 10.0 mi SW 5.8 mph - N/A   Clear
9:15 AM 55.9 °F 50.9 °F 83% 29.89 in 10.0 mi SW 5.8 mph - N/A   Clear
9:34 AM 58.5 °F 51.3 °F 77% 29.89 in 10.0 mi SSW 4.6 mph - N/A   Clear
9:55 AM 60.3 °F 49.5 °F 68% 29.88 in 10.0 mi SSW 4.6 mph - N/A   Clear
10:15 AM 61.0 °F 50.0 °F 67% 29.88 in 10.0 mi SW 5.8 mph - N/A   Clear
10:35 AM 62.2 °F 49.5 °F 63% 29.88 in 10.0 mi SSW 6.9 mph - N/A   Clear
10:55 AM 63.5 °F 49.3 °F 60% 29.87 in 10.0 mi SSW 3.5 mph - N/A   Clear
11:15 AM 66.2 °F 50.0 °F 56% 29.87 in 10.0 mi West 3.5 mph - N/A   Clear
11:35 AM 68.5 °F 50.0 °F 52% 29.87 in 10.0 mi Calm Calm - N/A   Clear
11:55 AM 68.5 °F 49.6 °F 51% 29.86 in 10.0 mi SW 5.8 mph - N/A   Clear
12:15 PM 68.5 °F 48.0 °F 48% 29.86 in 10.0 mi ESE 6.9 mph - N/A   Mostly Cloudy
12:35 PM 68.5 °F 48.6 °F 49% 29.86 in 10.0 mi SW 5.8 mph - N/A   Mostly Cloudy
12:55 PM 71.2 °F 48.2 °F 44% 29.85 in 10.0 mi SSE 5.8 mph - N/A   Mostly Cloudy
1:14 PM 73.2 °F 49.5 °F 43% 29.85 in 10.0 mi SSW 9.2 mph - N/A   Scattered Clouds
1:35 PM 68.7 °F 46.6 °F 45% 29.85 in 10.0 mi WSW 4.6 mph - N/A   Mostly Cloudy
1:55 PM 68.7 °F 46.6 °F 45% 29.85 in 10.0 mi SSW 5.8 mph - N/A   Mostly Cloudy
2:14 PM 68.5 °F 46.6 °F 45% 29.85 in 10.0 mi SSE 5.8 mph - N/A   Mostly Cloudy
2:35 PM 68.5 °F 46.6 °F 45% 29.85 in 10.0 mi Calm Calm - N/A   Overcast
2:55 PM 68.5 °F 46.4 °F 45% 29.85 in 10.0 mi Calm Calm - N/A   Overcast
3:14 PM 68.5 °F 45.9 °F 44% 29.85 in 10.0 mi SSW 3.5 mph - N/A   Overcast
3:35 PM 68.5 °F 48.0 °F 48% 29.84 in 10.0 mi SSW 3.5 mph - N/A Rain Light Rain
3:55 PM 68.5 °F 47.3 °F 47% 29.84 in 10.0 mi Calm Calm - N/A   Overcast
4:14 PM 68.2 °F 51.4 °F 55% 29.85 in 10.0 mi NNW 13.8 mph - N/A Rain Light Rain
4:35 PM 63.5 °F 52.0 °F 66% 29.85 in 10.0 mi NNW 8.1 mph - N/A   Light Drizzle
4:55 PM 60.4 °F 53.8 °F 79% 29.86 in 10.0 mi NNW 8.1 mph - N/A Rain Rain
5:14 PM 59.9 °F 57.2 °F 91% 29.86 in 10.0 mi NNW 5.8 mph - N/A Rain Light Rain
5:35 PM 59.9 °F 57.0 °F 90% 29.85 in 10.0 mi NNE 5.8 mph - N/A   Drizzle
5:55 PM 59.9 °F 56.5 °F 88% 29.86 in 10.0 mi WNW 6.9 mph - N/A   Mostly Cloudy
6:14 PM 59.9 °F 56.5 °F 88% 29.86 in 10.0 mi North 3.5 mph - N/A   Mostly Cloudy
6:35 PM 59.9 °F 55.8 °F 86% 29.86 in 10.0 mi Calm Calm - N/A   Mostly Cloudy
6:55 PM 59.9 °F 56.1 °F 87% 29.87 in 10.0 mi NNE 3.5 mph - N/A Rain Light Rain
7:14 PM 59.5 °F 56.1 °F 88% 29.87 in 10.0 mi ENE 3.5 mph - N/A   Overcast
7:35 PM 59.7 °F 56.3 °F 88% 29.87 in 10.0 mi East 5.8 mph - N/A   Mostly Cloudy
7:55 PM 59.9 °F 55.9 °F 87% 29.87 in 10.0 mi ENE 6.9 mph - N/A   Scattered Clouds
8:14 PM 59.7 °F 55.4 °F 86% 29.87 in 10.0 mi ENE 4.6 mph - N/A   Mostly Cloudy
8:35 PM 58.5 °F 55.2 °F 89% 29.87 in 10.0 mi ENE 5.8 mph - N/A   Overcast
8:55 PM 58.5 °F 55.8 °F 91% 29.87 in 10.0 mi East 5.8 mph - N/A   Overcast
9:14 PM 58.5 °F 55.4 °F 90% 29.87 in 10.0 mi East 4.6 mph - N/A   Overcast
9:35 PM 58.5 °F 55.6 °F 90% 29.88 in 10.0 mi East 4.6 mph - N/A   Overcast
9:55 PM 56.7 °F 54.7 °F 93% 29.89 in 10.0 mi ENE 3.5 mph - N/A   Overcast
10:15 PM 56.7 °F 55.0 °F 94% 29.89 in 10.0 mi NE 3.5 mph - N/A   Overcast
10:35 PM 55.9 °F 54.9 °F 96% 29.89 in 10.0 mi ENE 3.5 mph - N/A   Mostly Cloudy
10:55 PM 55.0 °F 54.7 °F 99% 29.89 in 7.0 mi Calm Calm - N/A   Scattered Clouds
11:35 PM 53.6 °F 53.6 °F 100% 29.89 in 0.5 mi Calm Calm - N/A Fog Fog
11:55 PM 53.6 °F 53.6 °F 100% 29.88 in 0.2 mi Calm Calm - N/A Fog Fog